[[{"header":{"parameterUnit":"m.s-1","parameterCategory":1,"la1":30.2991,"la2":30.254,"lo1":-89.0895,"lo2":-89.0444,"dy":0.0017,"dx":0.0017,"nx":28,"ny":28,"refTime":"2024-12-12T09:00:00:Z","depth":0,"parameterNumber":2,"parameterNumberName":"U-component_of_WINDS"},"data":[0,0,0,0,0,0,0,0,0,0,0,0,0,0,0,0,0,0,0,0,0,0,0,0,0,0,0,0,0,0,0,0,0,0,0,0,0,0,0,0,0,0,0,0,0,0,0,0,0,0,0,0,0,0,0,0,0,0,-5.5075,-5.5075,0,-5.5062,-5.5062,-5.5062,-5.4886,-5.4882,-5.4877,-5.4873,-5.4864,-5.4868,-5.4872,0,0,0,0,0,0,0,0,0,0,0,0,0,-5.4952,-5.4955,-5.5076,-5.5075,-5.5075,-5.5062,-5.5062,-5.5062,-5.4887,-5.4882,-5.4876,-5.4871,-5.4863,-5.4867,-5.4872,0,0,0,0,0,0,0,0,0,0,0,0,0,-5.4979,-5.4956,-5.5076,-5.4986,-5.4978,-5.5062,-5.5062,-5.5062,-5.4888,-5.4882,-5.4875,-5.4869,-5.4861,-5.4867,-5.4873,-5.5043,0,0,-5.489,-5.4893,0,0,0,0,0,0,0,0,-5.4978,-5.4984,-5.5,-5.4993,-5.4984,-5.4969,-5.5015,-5.5056,-5.489,-5.4923,-5.4873,-5.4865,-5.4905,-5.4906,-5.4919,-5.5042,-5.5042,-5.4891,-5.4894,-5.4897,-5.4899,0,0,0,0,0,0,0,-5.4976,-5.4984,-5.507,-5.5,-5.499,-5.4948,-5.4944,-5.5022,-5.4951,-5.4919,-5.4906,-5.4907,-5.4899,-5.4914,-5.4917,-5.5042,-5.4891,-5.4896,-5.49,-5.4902,-5.5304,-5.531,0,0,0,0,0,0,-5.4986,-5.4983,-5.5071,-5.507,-5.4964,-5.4956,-5.4952,-5.4981,-5.495,-5.4939,-5.4913,-5.4899,-5.4907,-5.4911,-5.4916,-5.5113,-5.4897,-5.4902,-5.4906,-5.5296,-5.5305,-5.5313,0,0,0,0,0,0,-5.4984,-5.4996,-5.5071,-5.5023,-5.5029,-5.4965,-5.4999,-5.4984,-5.4998,-5.4945,-5.4932,-5.4941,-5.4902,-5.4908,-5.5012,-5.511,-5.4905,-5.491,-5.5288,-5.5299,-5.5309,-5.5508,0,0,0,0,0,0,-5.4982,-5.4996,-5.5059,-5.5026,-5.5033,-5.5167,-5.5005,-5.4988,-5.5008,-5.499,-5.4968,-5.4958,-5.4897,-5.5004,-5.5018,-5.5114,-5.4915,-5.5279,-5.5293,-5.5306,-5.5493,-5.5524,-5.5552,0,0,0,0,0,-5.4978,-5.5117,-5.5064,-5.5075,-5.511,-5.5173,-5.5177,-5.5103,-5.5017,-5.508,-5.5046,-5.4958,-5.5097,-5.5016,-5.503,-5.513,-5.5272,-5.5289,-5.5305,-5.5479,-5.5518,-5.5551,0,0,0,0,0,0,-5.5165,-5.5111,-5.5051,-5.5183,-5.5184,-5.5143,-5.5221,-5.5147,-5.5173,-5.5155,-5.5064,-5.506,-5.5179,-5.5164,-5.5075,-5.5293,-5.5169,-5.5189,-5.5298,-5.5334,-5.5363,-5.5364,-5.492,0,0,0,0,0,-5.5222,-5.5276,-5.5226,-5.5348,-5.5351,-5.5287,-5.5311,-5.5254,-5.5252,-5.5251,-5.5225,-5.5227,-5.527,-5.5301,-5.5339,-5.549,-5.5482,-5.5565,-5.5595,-5.5619,-5.5638,-5.5716,-5.5752,-5.5366,-5.5366,-5.5365,0,0,-5.5339,-5.5316,-5.5357,-5.5385,-5.5378,-5.5438,-5.5288,-5.5357,-5.54,-5.5262,-5.5358,-5.5339,-5.5335,-5.5464,-5.5519,-5.5456,-5.5743,-5.564,-5.566,-5.5664,-5.5736,-5.5773,-5.5806,-5.5377,-5.5375,-5.5373,0,0,-5.5584,-5.5572,-5.5671,-5.5668,-5.566,-5.5616,-5.5641,-5.5611,-5.5593,-5.5687,-5.5585,-5.5636,-5.5713,-5.5715,-5.5726,-5.5971,-5.5891,-5.5986,-5.614,-5.6218,-5.6249,-5.6275,-5.6363,-5.6395,-5.6004,-5.6005,-5.6005,0,-5.5731,-5.5815,-5.5732,-5.5808,-5.5824,-5.57,-5.5801,-5.5802,-5.5808,-5.5822,-5.5751,-5.5845,-5.5834,-5.5961,-5.6021,-5.6034,-5.6059,-5.5988,-5.6251,-5.6276,-5.63,-5.6382,-5.6416,-5.6016,-5.6015,-5.6014,-5.6013,0,-5.5997,-5.6057,-5.6138,-5.6145,-5.617,-5.6259,-5.619,-5.6225,-5.6167,-5.6131,-5.6229,-5.6212,-5.6243,-5.6269,-5.6213,-5.6388,-5.6349,-5.6266,-5.614,-5.635,-5.6426,-5.6457,-5.6033,-5.6029,-5.6025,-5.6022,0,0,-5.6359,-5.6318,-5.635,-5.6351,-5.6333,-5.6379,-5.6462,-5.6491,-5.6523,-5.6532,-5.6599,-5.6668,-5.659,-5.6603,-5.6546,-5.6615,-5.681,-5.6522,-5.6521,-5.6577,-5.7002,-5.7065,-5.7103,-5.6757,-5.6763,-5.6767,-5.7002,0,-5.6594,-5.6731,-5.6659,-5.6807,-5.6862,-5.6745,-5.6817,-5.6815,-5.6784,-5.6827,-5.6793,-5.6843,-5.6737,-5.6744,-5.6806,-5.6773,-5.6894,-5.6755,-5.682,-5.6823,-5.6824,-5.7142,-5.7208,-5.7431,-5.7032,-5.7037,-5.704,0,-5.6886,-5.6906,-5.7059,-5.703,-5.705,-5.7117,-5.7138,-5.718,-5.7175,-5.7148,-5.7162,-5.7089,-5.7169,-5.7045,-5.7155,-5.7062,-5.7084,-5.7072,-5.7079,-5.7082,-5.6944,-5.7154,-5.75,-5.7534,-5.7086,-5.7082,-5.7079,0,-5.7135,-5.7199,-5.7298,-5.7303,-5.7273,-5.7322,-5.7312,-5.7301,-5.7323,-5.7342,-5.7356,-5.7385,-5.7402,-5.7426,-5.7363,-5.7279,-5.7482,-5.7352,-5.7462,-5.7464,-5.751,-5.7508,-5.7865,-5.7526,-5.7525,-5.7525,-5.7524,0,-5.7404,-5.7503,-5.7409,-5.7471,-5.7577,-5.7494,-5.7603,-5.758,-5.7571,-5.7627,-5.7529,-5.7583,-5.7497,-5.7543,-5.7495,-5.7593,-5.7601,-5.7582,-5.7568,-5.7591,-5.7593,-5.7604,-5.7586,-5.7533,-5.7531,-5.753,-5.7528,0,-5.7699,-5.7641,-5.7741,-5.7704,-5.7697,-5.7778,-5.7746,-5.7802,-5.7764,-5.7836,-5.7848,-5.7789,-5.7839,-5.7778,-5.7823,-5.779,-5.7924,-5.7887,-5.7925,-5.7915,-5.8028,-5.8018,-5.8404,-5.845,-5.8082,-5.8086,-5.8089,0,-5.7875,-5.7947,-5.7918,-5.7947,-5.7943,-5.7992,-5.8014,-5.7936,-5.7963,-5.7963,-5.8019,-5.806,-5.8088,-5.8174,-5.8136,-5.8169,-5.8132,-5.8265,-5.8137,-5.8157,-5.8134,-5.813,-5.8137,-5.8292,-5.8296,-5.83,-5.8302,0,-5.8193,-5.8161,-5.8195,-5.8221,-5.8249,-5.8266,-5.8275,-5.8305,-5.8224,-5.8259,-5.8308,-5.833,-5.8375,-5.8417,-5.8441,-5.8431,-5.8355,-5.8343,-5.837,-5.8394,-5.8413,-5.8404,-5.7997,-5.8335,-5.8331,-5.8329,-5.8327,-5.8326,-5.8433,-5.8492,-5.848,-5.8522,-5.8521,-5.8532,-5.8582,-5.855,-5.8589,-5.8618,-5.857,-5.8632,-5.8626,-5.8649,-5.8648,-5.8696,-5.8639,-5.8678,-5.8688,-5.8699,-5.8716,-5.8406,-5.87,-5.8699,-5.8698,-5.8697,-5.8697,0,-5.8746,-5.8732,-5.8772,-5.8787,-5.8821,-5.8744,-5.875,-5.8784,-5.8839,-5.8839,-5.8869,-5.8925,-5.8966,-5.8931,-5.8965,-5.901,-5.8975,-5.9021,-5.9017,-5.9016,-5.8765,-5.8738,-5.9048,-5.9048,-5.9048,-5.9048,-5.9048,-5.9048,-5.8912,-5.9007,-5.8974,-5.9068,-5.9053,-5.9112,-5.9122,-5.9132,-5.9131,-5.9198,-5.9231,-5.9208,-5.9194,-5.9226,-5.926,-5.9249,-5.9266,-5.9325,-5.9302,-5.9068,-5.9033,-5.9001,-5.8975,-5.9329,-5.933,-5.9547,-5.955,-5.9551]},{"header":{"parameterUnit":"m.s-1","parameterCategory":1,"la1":30.2991,"la2":30.254,"lo1":-89.0895,"lo2":-89.0444,"dy":0.0017,"dx":0.0017,"nx":28,"ny":28,"refTime":"2024-12-12T09:00:00:Z","depth":0,"parameterNumber":3,"parameterNumberName":"V-component_of_WINDS"},"data":[0,0,0,0,0,0,0,0,0,0,0,0,0,0,0,0,0,0,0,0,0,0,0,0,0,0,0,0,0,0,0,0,0,0,0,0,0,0,0,0,0,0,0,0,0,0,0,0,0,0,0,0,0,0,0,0,0,0,-2.0417,-2.0417,0,-2.0404,-2.0403,-2.0403,-2.0411,-2.0411,-2.0411,-2.0412,-2.0396,-2.0396,-2.0395,0,0,0,0,0,0,0,0,0,0,0,0,0,-2.0444,-2.0444,-2.0417,-2.0417,-2.0416,-2.0404,-2.0403,-2.0403,-2.0411,-2.0411,-2.0411,-2.0412,-2.0397,-2.0396,-2.0395,0,0,0,0,0,0,0,0,0,0,0,0,0,-2.0432,-2.0443,-2.0417,-2.0419,-2.0419,-2.0404,-2.0403,-2.0403,-2.041,-2.0411,-2.0412,-2.0412,-2.0397,-2.0396,-2.0395,-2.0377,0,0,-2.0391,-2.0391,0,0,0,0,0,0,0,0,-2.0432,-2.0431,-2.0419,-2.0418,-2.0418,-2.0409,-2.0408,-2.0394,-2.041,-2.0414,-2.0412,-2.0412,-2.04,-2.0399,-2.0395,-2.0376,-2.0375,-2.0391,-2.039,-2.039,-2.039,0,0,0,0,0,0,0,-2.0433,-2.0431,-2.0412,-2.0418,-2.0418,-2.0419,-2.0418,-2.0405,-2.0404,-2.0413,-2.0414,-2.0412,-2.04,-2.0396,-2.0395,-2.0375,-2.0391,-2.039,-2.0389,-2.0389,-2.0336,-2.0335,0,0,0,0,0,0,-2.0434,-2.0432,-2.0412,-2.0411,-2.0427,-2.0418,-2.0416,-2.0412,-2.0404,-2.0403,-2.0412,-2.0413,-2.0398,-2.0396,-2.0394,-2.037,-2.039,-2.0389,-2.0388,-2.0337,-2.0336,-2.0335,0,0,0,0,0,0,-2.0435,-2.0433,-2.0413,-2.0422,-2.0419,-2.0417,-2.0411,-2.0411,-2.0407,-2.0403,-2.0402,-2.0408,-2.0398,-2.0396,-2.038,-2.0369,-2.0388,-2.0387,-2.0338,-2.0337,-2.0336,-2.0322,0,0,0,0,0,0,-2.0436,-2.0433,-2.0427,-2.0422,-2.0419,-2.04,-2.0411,-2.0411,-2.0405,-2.0406,-2.0399,-2.0399,-2.0398,-2.0382,-2.0379,-2.0368,-2.0387,-2.0339,-2.0337,-2.0336,-2.0324,-2.0321,-2.0318,0,0,0,0,0,-2.0437,-2.0424,-2.0427,-2.0424,-2.0412,-2.0399,-2.0398,-2.0398,-2.0405,-2.0398,-2.0394,-2.0399,-2.0371,-2.038,-2.0377,-2.0366,-2.0339,-2.0338,-2.0336,-2.0325,-2.0321,-2.0318,0,0,0,0,0,0,-2.0429,-2.0424,-2.0426,-2.0412,-2.0406,-2.0401,-2.0392,-2.0395,-2.0387,-2.0388,-2.0388,-2.0387,-2.037,-2.0366,-2.0376,-2.0346,-2.0356,-2.0354,-2.0348,-2.0345,-2.0343,-2.0343,-2.0386,0,0,0,0,0,-2.0426,-2.0417,-2.0413,-2.04,-2.0397,-2.0395,-2.039,-2.0391,-2.0384,-2.0382,-2.0377,-2.037,-2.0359,-2.0352,-2.0343,-2.0323,-2.032,-2.0314,-2.0311,-2.0309,-2.0306,-2.0292,-2.0288,-2.033,-2.033,-2.033,0,0,-2.0418,-2.0415,-2.0409,-2.0399,-2.0394,-2.0383,-2.0393,-2.0382,-2.0374,-2.038,-2.0364,-2.036,-2.0352,-2.0333,-2.0325,-2.033,-2.0294,-2.0307,-2.0305,-2.0304,-2.029,-2.0286,-2.0282,-2.0329,-2.0329,-2.0329,0,0,-2.04,-2.0397,-2.0385,-2.038,-2.0372,-2.0371,-2.0368,-2.0361,-2.0359,-2.0343,-2.0346,-2.0335,-2.0318,-2.0311,-2.0305,-2.028,-2.0282,-2.0276,-2.0262,-2.0248,-2.0245,-2.0242,-2.0229,-2.0225,-2.0274,-2.0274,-2.0274,0,-2.0392,-2.0377,-2.0378,-2.0366,-2.036,-2.0365,-2.0351,-2.0345,-2.0335,-2.033,-2.0336,-2.0311,-2.0306,-2.0284,-2.0278,-2.0274,-2.0268,-2.0277,-2.0245,-2.0242,-2.024,-2.0228,-2.0223,-2.0273,-2.0273,-2.0274,-2.0274,0,-2.0366,-2.0355,-2.0346,-2.0335,-2.0328,-2.0315,-2.0313,-2.0305,-2.0306,-2.0302,-2.0284,-2.0278,-2.0265,-2.026,-2.0262,-2.0237,-2.024,-2.0246,-2.0256,-2.0235,-2.0223,-2.0219,-2.0272,-2.0272,-2.0273,-2.0273,0,0,-2.0343,-2.0331,-2.0328,-2.0321,-2.0312,-2.0303,-2.0289,-2.0276,-2.0268,-2.026,-2.0246,-2.023,-2.0234,-2.0227,-2.0227,-2.0215,-2.019,-2.0221,-2.0221,-2.0213,-2.0159,-2.0153,-2.0148,-2.0193,-2.0192,-2.0191,-2.0158,0,-2.0322,-2.0298,-2.0297,-2.0275,-2.0263,-2.0265,-2.0253,-2.0244,-2.024,-2.0228,-2.0224,-2.021,-2.0219,-2.0214,-2.0202,-2.0196,-2.0179,-2.0199,-2.0177,-2.0176,-2.0177,-2.0143,-2.0137,-2.0107,-2.0154,-2.0154,-2.0153,0,-2.0295,-2.0284,-2.026,-2.0249,-2.0244,-2.0233,-2.0219,-2.0209,-2.0198,-2.0196,-2.0186,-2.0187,-2.0169,-2.0181,-2.0155,-2.0168,-2.0159,-2.0154,-2.0153,-2.0149,-2.0162,-2.0135,-2.0097,-2.0092,-2.0147,-2.0147,-2.0148,0,-2.0277,-2.0257,-2.024,-2.0234,-2.0222,-2.0213,-2.0207,-2.0197,-2.0188,-2.0176,-2.0169,-2.0156,-2.0147,-2.0135,-2.013,-2.014,-2.0103,-2.0116,-2.0098,-2.0098,-2.0089,-2.009,-2.0047,-2.0088,-2.0088,-2.0088,-2.0088,0,-2.0252,-2.0237,-2.0231,-2.022,-2.0201,-2.0199,-2.018,-2.0175,-2.0165,-2.0151,-2.0153,-2.0139,-2.0135,-2.012,-2.0116,-2.0093,-2.009,-2.0086,-2.0084,-2.0084,-2.0084,-2.0077,-2.0077,-2.0087,-2.0087,-2.0087,-2.0087,0,-2.0229,-2.0225,-2.0205,-2.0194,-2.0191,-2.0177,-2.0167,-2.0155,-2.015,-2.0132,-2.0127,-2.0119,-2.0101,-2.0095,-2.0074,-2.0071,-2.0043,-2.0045,-2.0046,-2.0046,-2.0027,-2.0028,-1.9976,-1.9968,-2.0017,-2.0016,-2.0016,0,-2.0213,-2.0201,-2.0188,-2.0179,-2.0172,-2.0158,-2.0148,-2.0144,-2.0134,-2.0118,-2.0107,-2.0089,-2.0074,-2.0044,-2.0035,-2.0018,-2.0017,-2.0,-2.0015,-2.0013,-2.0013,-2.0013,-2.0009,-1.9997,-1.9997,-1.9996,-1.9996,0,-2.0184,-2.0181,-2.0168,-2.0153,-2.0141,-2.0129,-2.0117,-2.0109,-2.0103,-2.0091,-2.0072,-2.006,-2.0036,-2.0017,-1.9998,-1.999,-1.999,-1.9991,-1.9986,-1.9984,-1.9984,-1.998,-2.0036,-1.9992,-1.9993,-1.9993,-1.9993,-1.9993,-2.0162,-2.015,-2.0137,-2.0121,-2.0112,-2.0099,-2.0086,-2.0079,-2.0063,-2.0044,-2.0042,-2.0021,-2.0006,-1.998,-1.9971,-1.9952,-1.9957,-1.995,-1.9947,-1.9945,-1.9942,-1.9989,-1.9949,-1.9949,-1.9949,-1.9949,-1.9949,0,-2.013,-2.0122,-2.0107,-2.0089,-2.0075,-2.0078,-2.0063,-2.0051,-2.0032,-2.0019,-2.0003,-1.9979,-1.9959,-1.9947,-1.9927,-1.9913,-1.9913,-1.9908,-1.9907,-1.9905,-1.9941,-1.9946,-1.9908,-1.9908,-1.9908,-1.9908,-1.9908,-1.9908,-2.0112,-2.009,-2.0086,-2.0057,-2.0048,-2.0027,-2.0018,-2.0006,-1.9994,-1.9967,-1.9951,-1.9943,-1.9929,-1.9907,-1.9887,-1.9884,-1.9874,-1.9868,-1.9865,-1.9899,-1.9903,-1.9907,-1.9911,-1.9867,-1.9867,-1.983,-1.983,-1.983]}]]